Scottsbluff, NE

3:03 PM MST on November 16, 2019 (GMT -0700)
Heilig

Weather History for KBFF - September, 2019

Change the Weather History Date:

Wednesday, September 4, 2019

  Actual Average Record
Temperature  
Mean Temperature 77 °F -  
Max Temperature 93 °F 84 °F 102 °F (1998)
Min Temperature 61 °F 51 °F 35 °F (1968)
Cooling Degree Days 12    
Growing Degree Days 27 (Base 50)    
Moisture  
Dew Point 60 °F    
Average Humidity 62    
Maximum Humidity 87    
Minimum Humidity 31    
Precipitation  
Precipitation 0.00 in - - ()
Sea Level Pressure  
Sea Level Pressure 29.97 in    
Wind  
Wind Speed 10 mph (ESE)    
Max Wind Speed 17 mph    
Max Gust Speed 25 mph    
Visibility 10 miles    
Events      
Averages and records for this station are not official NWS values.
T = Trace of Precipitation, MM = Missing Value Source: NWS Daily Summary

Daily Weather History Graph

Daily Weather History Graph

Search for Another Location

Airport or City:

Astronomy

Sep. 04, 2019 Rise Set
Actual Time 6:23 AM MDT 7:23 PM MDT
Civil Twilight 5:54 AM MDT 7:51 PM MDT
Nautical Twilight 5:20 AM MDT 8:25 PM MDT
Astronomical Twilight 4:45 AM MDT 9:00 PM MDT
Moon 12:32 PM MDT (9/4) 10:53 PM MDT (9/4)
Length of Visible Light 13h 56m
Length of Day
13h 00m
Waxing Crescent, 35% of the Moon is Illuminated
Sep 4
Waxing Crescent
Sep 5
First Quarter
Sep 13
Full
Sep 21
Last Quarter
Sep 28
New

Hourly Weather History & Observations

Time (MDT) Temp. Heat Index Dew Point Humidity Pressure Visibility Wind Dir Wind Speed Gust Speed Precip Events Conditions
12:53 AM 68.0 °F - 55.0 °F 63% 30.08 in 10.0 mi ESE 8.1 mph - N/A   Clear
1:53 AM 64.9 °F - 55.9 °F 73% 30.08 in 10.0 mi ESE 5.8 mph - N/A   Clear
2:53 AM 64.0 °F - 55.9 °F 75% 30.07 in 10.0 mi East 8.1 mph - N/A   Clear
3:53 AM 64.0 °F - 55.9 °F 75% 30.06 in 10.0 mi East 9.2 mph - N/A   Partly Cloudy
4:53 AM 62.1 °F - 55.9 °F 80% 30.08 in 10.0 mi East 8.1 mph - N/A   Clear
5:53 AM 61.0 °F - 55.9 °F 83% 30.08 in 10.0 mi East 8.1 mph - N/A   Clear
6:53 AM 61.0 °F - 57.0 °F 87% 30.09 in 10.0 mi ESE 8.1 mph - N/A   Clear
7:53 AM 66.0 °F - 57.9 °F 75% 30.08 in 10.0 mi ESE 11.5 mph - N/A   Clear
8:53 AM 70.0 °F - 59.0 °F 68% 30.07 in 10.0 mi North - - N/A   Clear
9:53 AM 73.0 °F - 59.0 °F 61% 30.04 in 10.0 mi SSE 15.0 mph - N/A   Clear
10:53 AM 80.1 °F 81.1 °F 61.0 °F 52% 30.01 in 10.0 mi SSE 16.1 mph - N/A   Clear
11:53 AM 82.9 °F 83.7 °F 62.1 °F 49% 29.97 in 10.0 mi SSE 17.3 mph 24.2 mph N/A   Clear
12:53 PM 87.1 °F 87.0 °F 61.0 °F 41% 29.95 in 10.0 mi SSE 17.3 mph 25.3 mph N/A   Clear
1:53 PM 90.0 °F 90.3 °F 62.1 °F 39% 29.92 in 10.0 mi SSE 15.0 mph 25.3 mph N/A   Clear
2:53 PM 91.9 °F 91.8 °F 61.0 °F 35% 29.90 in 10.0 mi SSE 15.0 mph 21.9 mph N/A   Clear
3:53 PM 91.9 °F 91.8 °F 61.0 °F 35% 29.88 in 10.0 mi SSE 13.8 mph - N/A   Clear
4:53 PM 91.0 °F 91.5 °F 62.1 °F 38% 29.88 in 10.0 mi SSE 16.1 mph - N/A   Clear
5:53 PM 90.0 °F 90.6 °F 63.0 °F 40% 29.87 in 10.0 mi SE 11.5 mph - N/A   Clear
6:53 PM 84.0 °F 85.4 °F 64.0 °F 51% 29.89 in 10.0 mi SE 10.4 mph - N/A   Clear
7:53 PM 81.0 °F 82.5 °F 64.0 °F 56% 29.88 in 10.0 mi SE 11.5 mph - N/A   Clear
8:53 PM 75.9 °F - 64.9 °F 69% 29.90 in 10.0 mi East 11.5 mph - N/A   Clear
9:53 PM 73.0 °F - 64.9 °F 76% 29.90 in 10.0 mi East 8.1 mph - N/A   Clear
10:53 PM 70.0 °F - 64.9 °F 84% 29.89 in 10.0 mi East 5.8 mph - N/A   Clear
11:53 PM 68.0 °F - 63.0 °F 84% 29.88 in 10.0 mi East 9.2 mph - N/A   Clear